Find Starlink 36454

NORAD ID: 67470 Int'l Des: 2026-008 Owner: SPXS Country: US Constellation: starlink operational
LEOCIRCULAR

实时位置

正在加载3D地球...

关于 Starlink 36454

正在加载描述...

即将过境

Passes for default location (London). Set your location on the main map for personalized predictions.

高度历史

Loading altitude history...

两行轨道根数

1 67470U 26008AB 26120.79824037 .00019436 00000-0 71355-3 0 9998
2 67470 43.0016 270.7446 0001600 241.7517 118.3173 15.27597575 17548
Epoch: Apr 30, 2026 • Age: 10 hours

当前状态

高度 482.2 km
速度 7.63 km/s
星下点 17.86°N, 130.5°E
发射日期 Jan 14, 2026
运行时间 0.2 years
类型 internet

技术详情

分类 Payload
质量 575.00 kg
干质量 530.00 kg
总质量 575.00 kg
长度 0.30 m
直径 4.10 m
跨度 29.00 m
形状 Box + pan
制造商 SPXS
平台类型 Starlink V2MO
阶段状态 In Orbit
所有者/国家 SPXS/US

Most Searched